Weather History for KFCI - May, 2014

Change the Weather History Date:

Thursday, May 15, 2014

  Actual Average Record
Temperature  
Mean Temperature 71 °F -  
Max Temperature 82 °F - - ()
Min Temperature 60 °F - - ()
Cooling Degree Days 6    
Growing Degree Days 21 (Base 50)    
Moisture  
Dew Point 58 °F    
Average Humidity 70    
Maximum Humidity 77    
Minimum Humidity 47    
Precipitation  
Precipitation 0.44 in - - ()
Sea Level Pressure  
Sea Level Pressure 30.08 in    
Wind  
Wind Speed 3 mph (SSE)    
Max Wind Speed 21 mph    
Max Gust Speed 28 mph    
Visibility 6 miles    
Events      
T = Trace of Precipitation, MM = Missing Value Source: NWS Daily Summary

Daily Weather History Graph

Daily Weather History Graph

Search for Another Location

Airport or City:

Trip Planner

Search our weather history database for the weather conditions in past years. The results will help you decide how hot, cold, wet, or windy it might be!

Date:

Astronomy

May. 15, 2014 Rise Set
Actual Time 6:01 AM EDT 8:12 PM EDT
Civil Twilight 5:31 AM EDT 8:41 PM EDT
Nautical Twilight 4:56 AM EDT 9:17 PM EDT
Astronomical Twilight 4:17 AM EDT 9:56 PM EDT
Moon 9:18 PM EDT (5/15) 6:45 AM EDT (5/15)
Length of Visible Light 15h 09m
Length of Day
14h 11m
Full, 99% of the Moon is Illuminated
May 15
Full
May 21
Last Quarter
May 28
New
Jun 5
First Quarter
Jun 13
Full

Hourly Weather History & Observations

Time (EDT) Temp. Heat Index Dew Point Humidity Pressure Visibility Wind Dir Wind Speed Gust Speed Precip Events Conditions
12:52 AM 66.2 °F - 57.2 °F 73% 30.14 in 2.5 mi Calm Calm - N/A   Clear
12:55 AM 66.2 °F - 57.2 °F 73% 30.14 in 2.5 mi Calm Calm - N/A   Clear
1:07 AM 66.2 °F - 57.2 °F 73% 30.14 in 3.0 mi Calm Calm - N/A   Clear
1:13 AM 64.4 °F - 57.2 °F 77% 30.14 in 2.5 mi Calm Calm - N/A   Clear
1:16 AM 64.4 °F - 57.2 °F 77% 30.14 in 1.5 mi Calm Calm - N/A   Clear
1:18 AM 64.4 °F - 55.4 °F 73% 30.14 in 0.8 mi Calm Calm - N/A   Mostly Cloudy
1:22 AM 64.4 °F - 55.4 °F 73% 30.13 in 0.2 mi Calm Calm - N/A   Overcast
1:28 AM 66.2 °F - 57.2 °F 73% 30.13 in 0.5 mi Calm Calm - N/A   Mostly Cloudy
1:33 AM 64.4 °F - 57.2 °F 77% 30.13 in 1.0 mi Calm Calm - N/A   Mostly Cloudy
1:50 AM 64.4 °F - 57.2 °F 77% 30.13 in 2.0 mi SE 3.5 mph - N/A   Clear
1:53 AM 64.4 °F - 57.2 °F 77% 30.12 in 3.0 mi SE 3.5 mph - N/A   Clear
1:55 AM 64.4 °F - 57.2 °F 77% 30.12 in 3.0 mi SE 3.5 mph - N/A   Clear
2:55 AM 64.4 °F - 55.4 °F 73% 30.11 in 9.0 mi South 4.6 mph - N/A   Clear
3:55 AM 62.6 °F - 53.6 °F 72% 30.10 in 7.0 mi Calm Calm - N/A   Clear
4:55 AM 62.6 °F - 53.6 °F 72% 30.11 in 5.0 mi Calm Calm - N/A   Clear
5:55 AM 62.6 °F - 53.6 °F 72% 30.11 in 3.0 mi Calm Calm - N/A   Clear
5:56 AM 62.6 °F - 53.6 °F 72% 30.11 in 2.5 mi Calm Calm - N/A   Clear
5:58 AM 60.8 °F - 53.6 °F 77% 30.11 in 1.8 mi Calm Calm - N/A   Clear
6:11 AM 60.8 °F - 51.8 °F 72% 30.12 in 2.0 mi Calm Calm - N/A   Mostly Cloudy
6:13 AM 60.8 °F - 51.8 °F 72% 30.12 in 3.0 mi Calm Calm - N/A   Mostly Cloudy
6:55 AM 64.4 °F - 57.2 °F 77% 30.12 in 6.0 mi SE 5.8 mph - N/A   Overcast
7:55 AM 68.0 °F - 59.0 °F 73% 30.12 in 8.0 mi SSE 6.9 mph - N/A   Overcast
8:55 AM 71.6 °F - 62.6 °F 73% 30.11 in 10.0 mi SSE 10.4 mph 17.3 mph N/A   Overcast
9:55 AM 77.0 °F - 62.6 °F 61% 30.09 in 10.0 mi SSE 15.0 mph 19.6 mph N/A   Mostly Cloudy
10:55 AM - - - N/A% 30.08 in 10.0 mi SSE 18.4 mph 27.6 mph N/A   Mostly Cloudy
11:55 AM 80.6 °F 81.8 °F 62.6 °F 54% 30.07 in 10.0 mi SSE 17.3 mph 24.2 mph N/A   Mostly Cloudy
12:55 PM 82.4 °F 82.9 °F 60.8 °F 48% 30.03 in 10.0 mi SSE 20.7 mph 25.3 mph N/A   Partly Cloudy
1:55 PM 80.6 °F 81.5 °F 60.8 °F 51% 30.02 in 10.0 mi South 15.0 mph 19.6 mph N/A   Partly Cloudy
3:55 PM 80.6 °F 81.8 °F 62.6 °F 54% 30.00 in 10.0 mi South 6.9 mph - N/A   Scattered Clouds
4:55 PM 78.8 °F - 57.2 °F 47% 29.99 in 10.0 mi South 6.9 mph - N/A   Clear
5:55 PM 75.2 °F - 59.0 °F 57% 29.98 in 10.0 mi SSW 4.6 mph - N/A   Overcast
6:55 PM 69.8 °F - 59.0 °F 68% 29.98 in 9.0 mi West 9.2 mph - 0.12 in   Overcast
7:55 PM 69.8 °F - 59.0 °F 68% 29.97 in 10.0 mi SW 3.5 mph - 0.07 in   Mostly Cloudy
8:55 PM 68.0 °F - 59.0 °F 73% 29.95 in 10.0 mi East 3.5 mph - 0.05 in   Overcast
9:55 PM 69.8 °F - 60.8 °F 73% 29.95 in 4.0 mi SSE 4.6 mph - 0.11 in   Mostly Cloudy
10:55 PM 69.8 °F - 60.8 °F 73% 29.93 in 7.0 mi SSE 6.9 mph - 0.04 in   Mostly Cloudy
11:55 PM 69.8 °F - 60.8 °F 73% 29.91 in 10.0 mi SSE 11.5 mph 19.6 mph 0.05 in   Overcast